Simultaneous Nadir Overpasses (SNOs) Predictions

Prediction of SNOs between GOES-16 and NOAA-19 Satellite Orbit:

Table of predicted SNOs for the next 14.0 days since TLE Epoch: 11/9/2019
Index Date Time (GOES-16) GOES-16 Lat,Lon NOAA-19 Lat,Lon Distance(km) Time Diff (sec)
1 11/09/2019 22:11:00 -0.00, -75.19 0.55, -72.69 284.92 80
2 11/12/2019 10:32:04 0.00, -75.21 0.57, -77.68 281.38 80
3 11/13/2019 10:17:45 0.00, -75.22 -0.11, -74.84 44.01 80
4 11/14/2019 10:06:06 0.00, -75.22 -0.73, -71.99 369.29 80
5 11/16/2019 22:27:11 -0.00, -75.23 -0.40, -76.98 199.69 80
6 11/17/2019 22:18:12 0.00, -75.24 0.24, -74.13 125.97 80
7 11/18/2019 22:06:33 0.00, -75.24 0.94, -71.29 451.68 80
8 11/20/2019 10:39:17 -0.01, -75.27 0.91, -79.11 439.83 80
9 11/21/2019 10:27:38 -0.01, -75.28 0.22, -76.28 113.78 80
10 11/22/2019 10:13:20 -0.01, -75.29 -0.47, -73.44 212.50 80




NCC Satellite Simultaneous Nadir Overpasses (SNOs) Prediction Service
